$Date,$Time,DM0201B,DM0203B,DM0205B,DM0207B,DM0209B
12/06/98,00:00:01,97,318,-8,572,955
12/06/98,00:05:01,134,346,-8,598,955
12/06/98,00:10:01,140,347,-8,374,955
12/06/98,00:15:01,135,327,-8,461,955
12/06/98,00:20:01,133,334,-8,648,955
12/06/98,00:25:01,135,337,-8,434,955
12/06/98,00:30:01,125,331,-8,595,955
12/06/98,00:35:01,120,346,-8,632,955
12/06/98,00:40:01,120,333,-8,589,955
12/06/98,00:45:01,123,333,-8,586,955
12/06/98,00:50:01,135,334,-8,670,955
12/06/98,00:55:01,114,347,-8,629,955
12/06/98,01:00:01,145,327,-8,582,955
12/06/98,01:05:01,107,331,-8,583,955
12/06/98,01:10:01,107,344,-8,588,955
12/06/98,01:15:01,116,341,-8,587,955
12/06/98,01:20:01,130,328,-8,584,955
12/06/98,01:25:01,140,331,-7,586,955
12/06/98,01:30:01,86,335,-8,588,955
12/06/98,01:35:01,126,352,-8,590,955
12/06/98,01:40:01,121,344,-7,592,955
12/06/98,01:45:01,138,3,-7,592,955
12/06/98,01:50:01,124,345,-8,593,955
12/06/98,01:55:01,102,352,-8,599,953
12/06/98,02:00:01,135,351,-7,595,953
12/06/98,02:05:01,106,350,-7,594,953
12/06/98,02:10:01,140,350,-7,594,953
12/06/98,02:15:01,128,339,-7,594,953
12/06/98,02:20:01,150,342,-6,594,953
12/06/98,02:25:01,129,324,-6,588,953
12/06/98,02:30:01,137,320,-5,587,953
12/06/98,02:35:01,140,336,-5,586,953
12/06/98,02:40:01,115,342,-5,585,953
12/06/98,02:45:01,113,319,-5,582,953
12/06/98,02:50:01,114,340,-4,581,953
12/06/98,02:55:01,121,327,-4,579,953
12/06/98,03:00:01,100,324,-4,576,953
12/06/98,03:05:01,132,343,-4,573,953
12/06/98,03:10:01,141,354,-5,579,953
12/06/98,03:15:01,129,355,-5,586,953
12/06/98,03:20:01,131,334,-5,579,953
12/06/98,03:25:01,121,344,-4,648,953
12/06/98,03:30:01,136,344,-4,597,953
12/06/98,03:35:01,133,344,-5,671,953
12/06/98,03:40:01,134,359,-5,341,953
12/06/98,03:45:01,128,337,-5,638,953
12/06/98,03:50:01,107,4,-5,338,953
12/06/98,03:55:01,101,350,-4,430,953
12/06/98,04:00:01,117,349,-5,681,953
12/06/98,04:05:01,104,359,-6,404,953
12/06/98,04:10:01,107,359,-6,327,953
12/06/98,04:15:01,119,349,-5,709,953
12/06/98,04:20:01,127,336,-6,268,953
12/06/98,04:25:01,110,347,-6,282,953
12/06/98,04:30:01,140,343,-6,839,953
12/06/98,04:35:01,128,355,-6,296,953
12/06/98,04:40:01,145,325,-6,327,953
12/06/98,04:45:01,132,348,-5,593,953
12/06/98,04:50:01,107,336,-5,633,953
12/06/98,04:55:01,156,342,-6,519,953
12/06/98,05:00:01,137,338,-6,261,953
12/06/98,05:05:01,135,350,-6,498,953
12/06/98,05:10:01,121,334,-6,455,953
12/06/98,05:15:01,117,332,-5,710,953
12/06/98,05:20:01,129,337,-5,762,953
12/06/98,05:25:01,122,326,-5,530,953
12/06/98,05:30:01,138,331,-4,184,953
12/06/98,05:35:01,86,331,-5,264,953
12/06/98,05:40:01,102,339,-6,382,953
12/06/98,05:45:01,142,345,-5,312,953
12/06/98,05:50:01,149,348,-5,580,953
12/06/98,05:55:01,158,321,-5,508,953
12/06/98,06:00:01,158,350,-5,462,953
12/06/98,06:05:01,145,323,-4,538,953
12/06/98,06:10:01,170,319,-4,592,953
12/06/98,06:15:01,137,326,-4,625,953
12/06/98,06:20:01,157,328,-5,174,953
12/06/98,06:25:01,165,337,-5,222,953
12/06/98,06:30:01,187,349,-6,635,953
12/06/98,06:35:01,152,345,-5,498,953
12/06/98,06:40:01,138,345,-6,252,953
12/06/98,06:45:01,171,345,-6,198,953
12/06/98,06:50:01,136,329,-5,486,953
12/06/98,06:55:01,147,329,-5,444,953
12/06/98,07:00:01,139,329,-5,167,953
12/06/98,07:05:01,192,340,-6,443,953
12/06/98,07:10:01,156,330,-5,525,953
12/06/98,07:15:01,164,341,-4,557,953
12/06/98,07:20:01,176,340,-5,384,953
12/06/98,07:25:01,170,337,-5,187,953
12/06/98,07:30:01,137,326,-6,175,953
12/06/98,07:35:01,166,325,-6,297,953
12/06/98,07:40:01,147,328,-7,173,953
12/06/98,07:45:01,161,338,-6,482,953
12/06/98,07:50:01,177,334,-6,468,953
12/06/98,07:55:01,191,330,-6,360,953
12/06/98,08:00:01,153,322,-6,149,953
12/06/98,08:05:01,175,322,-7,365,953
12/06/98,08:10:01,183,322,-6,349,953
12/06/98,08:15:01,160,330,-6,342,953
12/06/98,08:20:01,122,311,-6,336,953
12/06/98,08:25:01,148,318,-6,330,953
12/06/98,08:30:01,164,308,-6,326,953
12/06/98,08:35:01,136,308,-6,320,953
12/06/98,08:40:01,135,308,-6,314,953
12/06/98,08:45:01,159,310,-6,308,953
12/06/98,08:50:01,127,310,-6,304,953
12/06/98,08:55:01,146,300,-6,298,953
12/06/98,09:00:01,147,313,-6,294,953
12/06/98,09:05:01,147,322,-6,288,953
12/06/98,09:10:01,140,322,-6,285,951
12/06/98,09:15:01,146,322,-6,288,951
12/06/98,09:20:01,126,313,-6,185,951
12/06/98,09:25:01,151,312,-6,108,951
12/06/98,09:30:01,168,327,-7,75,951
12/06/98,09:35:01,157,333,-7,90,951
12/06/98,09:40:01,182,330,-7,96,951
12/06/98,09:45:01,148,315,-7,62,951
12/06/98,09:50:01,165,314,-7,73,951
12/06/98,09:55:01,144,324,-7,236,951
12/06/98,10:00:01,152,323,-7,194,951
12/06/98,10:05:01,178,319,-7,249,951
12/06/98,10:10:01,193,331,-7,255,951
12/06/98,10:15:01,155,321,-7,268,951
12/06/98,10:20:01,186,334,-7,301,951
12/06/98,10:25:01,172,326,-7,273,951
12/06/98,10:30:01,164,313,-7,259,951
12/06/98,10:35:01,184,320,-7,139,951
12/06/98,10:40:01,159,319,-8,232,951
12/06/98,10:45:01,197,306,-8,184,951
12/06/98,10:50:01,195,310,-8,210,951
12/06/98,10:55:01,186,324,-8,209,951
12/06/98,11:00:01,205,326,-8,96,951
12/06/98,11:05:01,226,316,-8,235,951
12/06/98,11:10:01,207,316,-8,224,951
12/06/98,11:15:01,215,312,-8,192,951
12/06/98,11:20:01,196,315,-8,216,951
12/06/98,11:25:01,207,315,-8,183,951
12/06/98,11:30:01,154,315,-8,125,951
12/06/98,11:35:01,196,327,-8,267,951
12/06/98,11:40:01,186,315,-8,147,951
12/06/98,11:45:01,190,324,-8,183,951
12/06/98,11:50:01,189,324,-8,129,951
12/06/98,11:55:01,189,324,-8,223,951
12/06/98,12:00:01,195,324,-8,151,951
12/06/98,12:05:01,178,327,-8,152,951
12/06/98,12:10:01,189,327,-8,179,951
12/06/98,12:15:01,197,328,-8,183,951
12/06/98,12:20:01,190,328,-9,195,951
12/06/98,12:25:01,168,328,-9,189,951
12/06/98,12:30:01,165,329,-9,208,951
12/06/98,12:35:01,169,329,-9,189,951
12/06/98,12:40:01,185,319,-9,171,951
12/06/98,12:45:01,135,333,-9,169,951
12/06/98,12:50:01,117,323,-9,168,951
12/06/98,12:55:01,95,329,-9,177,951
12/06/98,13:00:01,101,341,-9,173,951
12/06/98,13:05:01,109,330,-9,106,951
12/06/98,13:10:01,159,319,-9,84,951
12/06/98,13:15:01,189,331,-9,124,951
12/06/98,13:20:01,129,326,-9,132,951
12/06/98,13:25:01,112,356,-9,97,951
12/06/98,13:30:01,160,327,-9,91,951
12/06/98,13:35:01,146,335,-9,108,951
12/06/98,13:40:01,189,317,-9,114,951
12/06/98,13:45:01,147,329,-9,111,951
12/06/98,13:50:01,138,330,-9,139,951
12/06/98,13:55:01,158,334,-9,112,951
12/06/98,14:00:01,173,333,-9,247,951
12/06/98,14:05:01,143,321,-9,183,951
12/06/98,14:10:01,163,331,-9,207,951
12/06/98,14:15:01,172,329,-9,179,951
12/06/98,14:20:01,155,325,-9,179,951
12/06/98,14:25:01,185,328,-9,189,951
12/06/98,14:30:01,154,317,-9,198,951
12/06/98,14:35:01,135,308,-9,202,951
12/06/98,14:40:01,165,326,-9,193,951
12/06/98,14:45:01,152,328,-9,214,951
12/06/98,14:50:01,148,311,-9,253,951
12/06/98,14:55:01,125,333,-9,126,951
12/06/98,15:00:01,139,331,-9,195,951
12/06/98,15:05:01,132,321,-9,249,951
12/06/98,15:10:01,138,333,-9,207,951
12/06/98,15:15:01,164,311,-9,107,951
12/06/98,15:20:01,145,318,-9,205,949
12/06/98,15:25:01,152,317,-9,227,949
12/06/98,15:30:01,177,317,-10,243,949
12/06/98,15:35:01,205,318,-10,252,949
12/06/98,15:40:01,149,318,-10,237,949
12/06/98,15:45:01,170,318,-10,267,949
12/06/98,15:50:01,173,318,-10,137,949
12/06/98,15:55:01,150,318,-9,297,949
12/06/98,16:00:01,126,329,-9,144,949
12/06/98,16:05:01,149,312,-9,150,949
12/06/98,16:10:01,138,334,-9,165,949
12/06/98,16:15:01,145,327,-9,126,949
12/06/98,16:20:01,139,332,-9,120,949
12/06/98,16:25:01,145,332,-9,171,949
12/06/98,16:30:01,133,332,-9,159,949
12/06/98,16:35:01,143,330,-9,171,949
12/06/98,16:40:01,143,330,-9,145,949
12/06/98,16:45:01,155,330,-9,132,949
12/06/98,16:50:01,187,322,-9,127,949
12/06/98,16:55:01,125,334,-9,120,949
12/06/98,17:00:01,127,327,-9,95,949
12/06/98,17:05:01,141,311,-9,121,949
12/06/98,17:10:01,130,334,-9,84,949
12/06/98,17:15:01,122,335,-9,102,949
12/06/98,17:20:01,86,320,-9,99,949
12/06/98,17:25:01,87,355,-9,108,949
12/06/98,17:30:01,115,308,-9,97,949
12/06/98,17:35:01,142,352,-9,153,949
12/06/98,17:40:01,99,327,-9,138,949
12/06/98,17:45:01,103,324,-9,105,949
12/06/98,17:50:01,113,320,-9,102,949
12/06/98,17:55:01,123,344,-9,115,949
12/06/98,18:00:01,143,341,-9,132,949
12/06/98,18:05:01,111,341,-9,111,949
12/06/98,18:10:01,103,341,-9,111,949
12/06/98,18:15:01,113,328,-9,104,949
12/06/98,18:20:01,130,343,-9,106,949
12/06/98,18:25:01,120,339,-9,119,949
12/06/98,18:30:01,102,325,-9,100,949
12/06/98,18:35:01,164,308,-9,120,949
12/06/98,18:40:01,136,330,-9,159,949
12/06/98,18:45:01,145,331,-9,151,949
12/06/98,18:50:01,142,324,-9,145,949
12/06/98,18:55:01,161,325,-9,144,949
12/06/98,19:00:01,154,312,-9,145,949
12/06/98,19:05:01,161,312,-9,177,949
12/06/98,19:10:01,186,326,-9,210,949
12/06/98,19:15:01,171,330,-9,165,949
12/06/98,19:20:01,116,319,-9,191,949
12/06/98,19:25:01,192,334,-9,151,949
12/06/98,19:30:01,156,315,-9,150,949
12/06/98,19:35:01,168,330,-9,170,949
12/06/98,19:40:01,169,333,-9,160,949
12/06/98,19:45:01,150,318,-9,171,949
12/06/98,19:50:01,137,324,-9,162,949
12/06/98,19:55:01,126,324,-9,167,949
12/06/98,20:00:01,170,318,-9,148,949
12/06/98,20:05:01,169,329,-9,180,949
12/06/98,20:10:01,180,319,-9,167,949
12/06/98,20:15:01,133,319,-9,153,949
12/06/98,20:20:01,146,329,-9,167,949
12/06/98,20:25:01,114,324,-9,152,949
12/06/98,20:30:01,159,336,-9,168,949
12/06/98,20:35:01,184,336,-9,162,949
12/06/98,20:40:01,140,312,-9,177,949
12/06/98,20:45:01,156,332,-9,197,949
12/06/98,20:50:01,88,331,-9,208,949
12/06/98,20:55:01,119,319,-9,182,949
12/06/98,21:00:01,156,339,-9,228,949
12/06/98,21:05:01,127,345,-9,212,949
12/06/98,21:10:01,113,321,-9,192,949
12/06/98,21:15:01,108,332,-9,210,949
12/06/98,21:20:01,109,317,-9,174,949
12/06/98,21:25:01,109,316,-9,189,949
12/06/98,21:30:01,130,319,-9,226,949
12/06/98,21:35:01,154,331,-9,215,949
12/06/98,21:40:01,134,321,-9,227,949
12/06/98,21:45:01,105,330,-9,209,949
12/06/98,21:50:01,124,316,-9,204,949
12/06/98,21:55:01,138,314,-9,213,949
12/06/98,22:00:01,130,337,-9,291,949
12/06/98,22:05:01,130,348,-9,228,949
12/06/98,22:10:01,112,337,-9,231,949
12/06/98,22:15:01,116,346,-9,240,949
12/06/98,22:20:01,111,342,-9,205,949
12/06/98,22:25:01,144,332,-9,222,949
12/06/98,22:30:01,120,334,-9,217,949
12/06/98,22:35:01,166,350,-9,267,949
12/06/98,22:40:01,151,336,-9,212,949
12/06/98,22:45:01,163,338,-9,248,949
12/06/98,22:50:01,157,349,-9,264,949
12/06/98,22:55:01,122,351,-9,230,949
12/06/98,23:00:01,111,340,-9,210,949
12/06/98,23:05:01,131,331,-9,241,949
12/06/98,23:10:01,124,343,-9,273,949
12/06/98,23:15:01,103,349,-9,229,949
12/06/98,23:20:01,126,337,-9,228,949
12/06/98,23:25:01,103,346,-8,220,949
12/06/98,23:30:01,130,348,-8,246,949
12/06/98,23:35:01,119,334,-9,220,949
12/06/98,23:40:01,122,317,-9,234,949
12/06/98,23:45:01,120,348,-9,234,949
12/06/98,23:50:01,169,335,-9,221,949
12/06/98,23:55:01,112,328,-8,205,949
12/07/98,00:00:01,130,351,-9,202,949
